Theta_e
315 315 315 316 316 315 315 316 316 316 316 316 315 315 314 314 315 316 316 316 316 317 316 317 319 320 315 308 310 323 341 339 325 313 309 305 302 300 296 299 301 298 302 305 306 305 305
315 314 314 315 315 315 315 315 316 316 316 315 315 314 313 313 315 315 316 316 316 316 316 320 322 318 312 300 314 318 323 328 320 311 310 308 305 305 301 300 298 303 303 304 304 303 304
314 314 314 315 315 315 315 315 315 315 315 314 315 314 314 314 315 315 315 315 314 315 317 324 322 317 310 307 317 314 316 313 317 315 311 311 310 304 304 301 304 304 301 302 304 304 303
315 315 314 315 315 315 315 314 314 313 314 314 314 314 313 314 314 315 315 315 314 316 320 322 321 315 307 318 312 313 312 312 315 316 315 312 312 305 301 304 303 300 299 295 302 306 306
315 315 315 315 314 314 314 314 313 313 313 314 314 313 312 313 314 314 314 313 315 317 325 320 314 312 309 318 312 313 311 312 313 314 313 317 309 303 304 297 294 296 293 296 301 307 305
316 315 315 314 313 313 313 313 313 312 312 313 313 312 312 312 313 313 312 313 320 321 321 321 318 309 314 311 314 315 312 314 311 311 309 308 304 299 297 293 288 293 294 296 298 304 301
316 315 315 314 313 313 312 312 312 312 312 312 313 312 312 312 312 311 308 308 308 310 311 312 314 313 315 316 318 312 314 311 309 308 301 305 297 293 297 299 300 300 298 297 302 306 302
315 315 315 314 312 312 312 311 311 312 312 312 312 312 312 311 311 311 307 307 306 305 299 309 309 309 313 316 310 312 314 305 304 299 305 302 296 303 305 305 302 301 299 298 303 306 302
315 315 315 313 312 311 312 311 311 312 312 312 312 311 311 311 310 311 311 309 312 310 299 306 310 309 309 309 308 310 311 306 302 300 301 299 303 309 307 303 302 298 297 299 299 303 302
316 315 314 313 312 311 311 311 311 311 312 312 311 311 310 309 309 307 308 312 310 312 294 304 307 309 310 308 306 313 314 308 302 299 302 302 307 307 305 303 303 295 303 303 302 298 291
315 315 314 314 311 311 311 311 311 311 311 311 311 311 310 308 302 305 310 309 310 309 292 307 307 313 311 306 310 308 313 310 302 301 300 298 302 303 302 303 305 300 306 302 302 296 295
315 313 312 311 311 311 311 312 312 311 311 311 311 311 309 309 306 310 313 309 307 296 291 305 308 306 304 308 308 309 308 310 310 303 303 301 306 305 303 307 306 307 303 300 299 295 289
315 315 312 312 311 310 310 311 312 311 311 311 311 310 306 306 304 308 310 306 294 291 307 303 304 306 305 305 306 306 304 300 297 294 295 301 301 305 307 301 303 301 296 288 287 287 289
315 314 313 313 312 310 311 311 312 311 311 310 309 307 306 307 310 310 307 299 290 304 302 309 305 304 301 305 304 306 303 298 303 301 296 294 295 303 306 301 298 297 296 289 285 287 291
314 314 314 313 313 311 312 312 311 311 310 309 306 307 309 312 312 310 302 292 298 302 304 303 303 299 299 304 303 303 302 301 304 303 296 295 298 309 308 305 303 298 294 299 294 294 290
314 314 314 313 313 313 312 312 312 311 310 308 299 302 307 315 314 308 298 296 301 307 306 306 298 302 297 301 300 298 301 308 308 308 306 302 296 306 308 305 304 299 301 292 292 286 285
314 314 313 313 313 313 312 312 312 311 309 306 299 303 312 314 313 303 293 296 303 307 307 303 300 300 300 300 301 299 302 307 309 308 307 303 299 300 304 300 299 298 294 295 294 293 288
314 313 313 313 313 312 312 312 311 310 307 302 303 300 312 313 298 300 295 301 302 306 309 307 305 302 300 301 299 300 301 306 310 309 304 305 300 296 299 306 308 303 300 298 291 291 294
314 313 313 312 313 312 312 311 311 310 306 301 302 305 313 312 295 296 303 304 305 305 305 305 303 304 304 299 296 301 303 308 307 308 302 302 299 294 295 299 303 301 304 304 301 299 293
313 313 313 313 312 312 311 311 310 309 307 300 302 299 306 306 304 300 300 304 303 306 305 305 303 304 301 299 301 299 301 307 307 306 313 309 299 298 293 297 300 298 301 303 299 294 296
313 313 313 313 312 312 311 311 310 309 307 300 303 302 306 299 300 300 302 303 302 303 305 306 302 301 299 294 298 298 302 305 308 311 305 300 294 297 299 302 302 300 300 300 298 299 297
313 313 313 312 312 312 311 311 310 308 306 299 300 301 304 302 305 304 302 301 302 303 304 303 301 304 302 298 300 298 302 302 302 306 304 305 295 297 297 302 301 298 301 301 300 300 299
313 313 312 312 312 312 311 311 310 308 304 301 307 307 302 301 301 298 300 304 304 305 306 306 305 302 301 303 305 304 302 303 301 299 299 300 298 295 291 300 298 292 298 300 300 301 299
312 313 312 312 312 312 311 311 310 308 305 301 305 305 299 294 298 300 303 305 304 302 302 306 307 301 306 310 308 306 303 303 303 301 301 297 296 295 290 293 284 295 302 302 301 303 304
312 312 312 312 312 312 311 311 310 309 307 301 303 303 300 295 300 301 303 303 304 304 302 304 307 309 309 306 298 295 295 296 299 301 300 299 296 290 287 288 294 297 300 299 297 299 308
312 312 312 312 312 312 312 311 310 309 308 302 301 305 302 297 298 302 300 302 298 298 301 304 309 309 307 300 296 289 287 294 293 298 302 300 298 293 289 286 285 296 302 306 303 295 310
311 311 312 312 312 312 312 311 310 309 308 302 303 312 303 297 302 303 298 298 302 300 297 301 303 302 304 295 292 289 289 297 290 291 292 294 294 291 290 287 292 301 305 309 291 297 311
310 311 311 311 312 312 312 311 310 309 308 303 304 311 303 299 301 304 304 300 300 300 296 301 299 300 298 293 292 292 291 294 293 296 294 292 291 291 291 288 287 305 304 301 304 307 305
310 310 310 311 311 311 311 311 310 309 308 305 302 309 309 301 301 306 306 306 304 303 300 301 300 300 301 295 296 296 292 294 292 287 297 291 295 291 295 294 303 306 306 307 310 307 303
Wind_Speed
2 3 3 5 8 9 10 10 11 12 13 15 16 18 19 20 20 19 19 19 20 20 19 16 13 10 4 3 11 7 9 7 4 3 5 6 7 6 7 7 8 6 9 10 12 9 8
1 1 2 4 6 7 8 10 12 12 13 15 16 18 19 20 20 20 19 19 18 18 16 13 9 4 2 5 7 12 10 7 7 6 7 8 10 11 8 7 5 8 10 9 8 8 7
2 2 2 4 5 7 10 11 12 13 13 14 15 17 19 20 21 21 20 20 19 17 14 11 2 4 5 15 6 5 9 7 8 9 9 9 11 3 7 10 8 12 10 10 12 10 10
4 3 4 4 5 7 8 10 11 12 13 14 16 17 20 21 22 22 22 21 19 18 12 4 2 5 8 7 4 9 6 8 8 7 7 8 9 6 3 8 10 8 7 4 15 13 12
5 5 5 5 6 7 8 9 10 12 14 15 16 18 20 22 23 23 23 25 19 13 7 3 3 3 9 3 4 8 7 7 7 5 6 7 6 3 8 5 7 5 9 10 15 19 7
6 6 6 5 5 6 7 9 10 12 15 17 17 19 21 23 24 23 26 23 4 5 5 7 7 5 8 4 2 2 7 7 6 6 6 5 3 3 4 1 6 9 7 8 7 10 4
8 8 6 5 5 6 7 9 11 13 15 17 18 20 22 24 25 21 15 6 5 2 3 8 2 6 15 4 4 3 4 7 7 3 5 8 3 7 13 12 13 9 9 8 8 14 7
9 8 7 6 6 6 8 9 11 13 15 17 19 20 23 25 27 25 3 4 5 6 11 13 18 20 20 6 3 8 6 3 4 6 7 6 9 14 11 11 9 10 5 8 10 12 9
9 9 8 7 6 7 8 10 12 12 14 16 17 20 24 27 29 9 6 4 7 6 4 11 12 10 13 8 9 10 10 8 5 8 10 8 13 11 12 6 8 8 6 7 9 12 9
10 9 9 7 7 7 9 10 11 13 15 16 18 20 23 30 5 7 5 8 7 5 3 6 6 4 5 2 6 15 8 7 6 8 8 8 11 12 6 5 2 4 11 9 8 5 3
11 10 9 9 9 9 9 10 12 13 14 16 18 19 22 11 7 6 7 8 8 4 4 7 7 5 6 7 1 8 13 5 8 8 4 12 10 10 7 7 4 7 7 7 5 7 8
13 13 12 12 11 10 10 9 11 12 14 16 18 18 18 4 3 10 13 9 4 2 5 5 7 7 6 9 8 4 6 7 5 8 11 11 12 7 4 3 5 6 4 7 7 3 5
15 13 14 12 12 11 11 9 10 12 14 17 20 21 12 7 6 9 10 5 2 3 3 5 3 10 12 8 10 9 8 5 4 3 7 10 16 16 7 3 3 5 3 4 5 3 10
15 14 12 11 10 12 11 9 10 11 14 17 20 26 9 9 8 10 4 2 3 7 9 3 3 7 7 5 7 10 8 6 10 8 6 6 11 4 10 9 8 3 7 6 4 4 8
16 15 14 13 12 12 10 9 9 10 12 15 23 4 4 6 13 5 1 2 3 7 11 7 7 3 8 6 0 4 10 10 9 10 8 2 8 12 9 3 8 5 4 8 1 5 5
18 17 16 14 13 11 9 8 9 10 11 11 6 5 6 5 6 1 0 5 4 8 8 8 5 6 7 6 6 3 3 5 2 4 7 4 5 5 9 5 4 7 5 5 4 2 6
19 18 17 15 13 10 9 8 8 9 10 7 3 3 2 8 4 0 3 7 7 12 9 8 7 7 11 10 12 6 5 7 12 8 6 7 3 9 7 4 4 5 3 3 4 4 4
19 19 17 16 13 11 10 9 8 7 11 2 4 3 3 4 2 4 4 5 3 5 6 3 3 4 5 10 7 9 8 5 8 8 5 1 0 3 7 13 13 8 6 6 6 7 4
20 19 18 16 15 12 11 9 7 4 6 4 4 3 1 3 3 4 7 12 12 4 6 4 4 6 8 6 6 7 9 6 4 5 4 5 4 4 8 8 6 6 10 7 2 3 4
21 20 19 17 16 14 12 10 7 3 2 2 4 2 1 1 3 1 5 8 6 9 3 4 6 6 7 7 7 6 10 5 2 4 8 5 0 2 4 10 6 11 18 17 3 2 6
21 20 19 18 18 15 13 11 8 4 1 2 4 5 2 4 5 7 6 6 10 6 6 3 3 5 6 5 7 8 9 10 7 4 4 6 2 4 6 11 19 13 18 20 15 9 6
22 21 21 19 18 16 15 13 10 7 2 3 3 4 6 4 4 4 6 3 6 10 6 4 6 7 6 4 5 5 8 8 6 9 8 7 3 2 5 9 13 20 14 16 19 16 12
23 22 21 21 20 18 16 14 11 9 5 4 4 1 1 6 1 1 4 5 6 6 5 7 6 4 8 6 6 5 1 2 4 4 5 5 4 5 3 7 13 9 7 11 12 14 10
24 23 22 21 20 19 17 15 13 11 9 3 3 4 1 4 3 4 8 5 6 4 4 6 13 1 5 7 6 6 6 6 7 9 6 3 3 2 4 7 10 8 7 11 10 14 10
25 24 23 22 21 20 19 17 14 11 8 2 3 4 4 3 6 10 10 4 4 6 4 6 4 2 6 4 4 5 4 4 11 14 12 9 5 2 2 4 16 12 16 8 10 11 15
26 25 24 24 23 22 20 17 15 12 10 2 3 4 3 2 1 9 7 8 3 2 5 3 6 4 6 3 1 3 4 5 5 8 8 7 7 6 3 4 6 6 18 17 15 1 10
26 26 26 25 24 23 21 19 16 14 11 3 4 2 2 2 5 5 4 4 5 4 2 4 5 3 5 2 2 4 7 6 6 6 4 2 3 9 8 7 7 6 14 10 6 5 5
27 27 26 25 25 24 22 20 16 14 12 5 4 2 1 3 5 9 9 5 6 4 2 4 3 3 3 2 2 4 4 6 5 6 5 3 3 4 4 7 11 7 9 7 5 14 17
28 27 26 25 25 24 23 20 17 14 11 7 3 2 0 2 3 5 4 4 5 6 2 5 1 3 1 0 1 4 3 4 4 4 5 4 6 5 6 7 6 3 3 11 6 8 10
Wind_Direction
33 38 29 18 17 15 10 3 359 353 348 346 346 343 340 335 330 324 322 319 318 318 317 315 315 321 298 250 249 166 171 186 201 173 221 226 260 256 255 263 299 268 258 258 266 290 288
205 5 359 7 6 1 0 1 355 350 347 343 341 340 338 333 326 322 321 315 315 312 314 309 309 319 254 259 236 158 184 174 235 176 224 231 241 244 258 288 304 271 295 296 294 288 287
258 286 312 338 351 359 359 353 351 349 344 341 337 335 335 330 324 322 318 316 311 308 309 306 299 241 263 243 267 178 185 216 223 197 235 241 245 288 334 327 292 300 288 295 292 263 252
256 268 287 319 344 350 346 345 347 345 341 339 337 336 332 328 323 323 316 313 302 296 292 318 181 249 253 257 265 242 243 250 244 263 252 296 7 356 355 296 318 312 312 272 265 251 241
255 266 282 311 332 335 338 337 343 342 341 340 339 334 330 327 324 321 317 309 296 276 253 170 195 229 266 290 233 232 255 235 212 268 310 300 8 272 315 282 317 287 262 268 275 252 190
245 249 265 286 305 319 329 333 340 342 341 341 339 334 328 325 322 323 320 300 292 276 227 202 261 305 277 260 108 10 210 263 278 183 258 240 243 222 298 225 249 278 291 290 297 326 121
241 243 253 265 284 310 329 334 338 341 340 340 337 333 328 324 320 324 339 342 346 16 241 238 212 245 298 133 114 264 257 196 266 249 226 252 188 233 239 226 234 259 285 306 318 321 24
232 236 240 255 289 318 327 330 334 337 336 333 333 330 327 324 319 317 258 292 50 250 300 264 257 254 262 270 275 211 205 193 223 249 253 287 235 238 243 272 276 276 335 325 321 315 357
226 230 236 252 286 312 322 326 328 331 331 328 330 330 329 327 318 311 254 62 282 23 282 289 235 216 234 218 232 264 149 200 219 224 257 223 263 263 222 304 343 333 329 314 288 301 325
225 229 235 251 273 297 310 312 320 326 326 325 329 331 332 334 343 345 307 359 342 38 324 260 185 232 115 221 236 224 239 188 228 249 264 248 265 283 262 249 284 295 290 299 307 11 293
216 224 238 245 265 279 293 305 314 319 321 322 325 330 331 328 297 302 332 335 345 49 7 161 145 137 197 192 115 192 224 198 249 257 244 261 275 291 240 254 236 236 293 303 318 344 10
217 232 242 250 256 269 284 297 306 312 317 318 319 323 339 341 224 259 294 317 357 25 249 145 139 180 181 211 259 101 177 221 217 249 277 267 284 281 312 299 344 296 286 322 346 38 316
217 218 232 242 253 263 275 286 296 306 313 314 314 310 310 296 240 334 315 324 21 223 259 147 194 177 201 184 219 150 177 233 206 231 266 278 258 260 237 239 303 320 54 333 336 7 245
213 212 211 223 239 256 266 271 287 302 309 313 313 304 252 218 238 272 326 346 252 289 47 33 20 344 310 176 191 171 162 215 223 230 272 274 317 262 198 186 185 263 160 162 256 283 287
208 205 214 217 220 243 253 261 280 296 308 323 311 277 243 236 219 243 6 261 251 351 28 5 333 270 282 233 13 268 185 201 223 191 180 297 291 348 28 97 122 282 294 227 196 293 3
208 206 209 214 215 231 239 253 273 290 310 342 324 286 256 182 159 95 77 269 299 53 19 4 340 329 339 347 187 214 258 3 1 83 98 8 330 15 330 7 267 167 229 356 348 270 277
205 207 208 209 209 216 231 245 264 289 307 344 274 258 214 127 101 83 209 236 324 73 40 5 4 338 342 360 346 349 17 42 1 0 48 31 120 296 351 288 272 350 252 265 148 159 178
201 204 206 203 201 207 218 231 255 292 315 273 259 239 181 105 100 225 222 266 284 350 108 48 344 313 321 334 328 338 7 47 357 358 17 177 210 316 276 298 308 290 263 188 138 269 234
199 199 201 200 197 200 206 216 236 283 359 317 256 185 170 121 215 252 277 265 263 30 343 8 334 350 335 337 352 337 343 93 28 63 49 327 345 351 327 311 14 348 343 333 279 107 209
196 195 195 197 191 197 200 206 217 235 343 306 281 177 152 193 270 320 297 293 255 147 165 306 313 332 341 330 316 294 311 305 152 119 161 98 172 168 219 284 324 318 317 319 357 30 288
193 194 195 193 185 191 197 200 202 196 276 294 245 261 149 196 228 211 230 302 324 321 139 100 330 263 257 287 322 313 313 355 339 155 140 115 201 303 300 312 316 309 308 308 311 296 254
193 192 193 189 183 187 191 192 191 184 182 264 290 2 340 304 351 356 205 244 280 289 311 220 186 227 293 356 337 10 20 31 49 337 357 350 265 304 301 298 282 290 288 282 293 298 299
191 191 192 185 183 186 185 187 183 181 181 265 277 332 94 307 271 251 267 273 236 287 308 307 325 53 18 37 9 345 9 283 298 325 336 342 12 15 269 310 321 299 257 275 276 280 274
189 190 188 186 181 181 183 184 181 183 199 327 319 313 354 278 284 249 246 269 277 72 329 322 26 40 33 7 353 340 308 296 293 275 206 244 356 342 286 354 271 247 317 302 298 304 324
187 187 189 184 180 178 181 183 178 180 184 255 309 341 353 309 324 301 332 283 3 8 350 318 80 68 338 359 8 322 294 276 253 241 238 177 162 280 249 231 284 305 287 335 332 334 12
187 186 186 184 179 177 177 178 175 171 170 227 278 273 277 339 247 9 329 303 172 168 302 186 104 83 52 38 5 243 262 337 291 329 208 170 163 159 251 270 272 349 326 330 322 208 4
186 183 182 180 175 175 174 175 174 166 166 216 284 292 324 274 297 3 24 346 340 15 301 325 130 107 84 109 230 242 249 262 240 270 307 199 192 200 224 237 268 331 337 311 6 288 351
182 179 177 175 173 173 173 173 171 167 169 186 301 88 11 296 339 5 3 15 344 8 11 341 50 2 119 173 235 235 249 243 254 250 255 231 214 219 233 228 262 22 357 29 344 337 329
179 177 177 174 173 170 169 167 166 166 167 180 265 148 269 268 328 323 317 325 15 33 16 317 340 30 61 45 286 318 332 339 310 267 303 290 239 227 201 210 270 314 169 339 5 337 350